User: anonymous   Login
Location: Newark
(34.3481°N, 134.0494°E)
Time: 19:42:20
(UTC+00:00)
Language:

deb Explorer IX - Orbit

View from above orbital plane
View from above orbital plane
View from above satellite
View from above satellite

Ground track
Ground track

The orbit data is extracted from the following two-line orbital elements,

1    85U 61004C   20021.44360306  .00003240  00000-0  72566-3 0  9993
2    85  38.7717  55.7598 0384057 233.5947 122.8799 14.20260194910026
Epoch (UTC): 21 January 2020 10:38:47
Eccentricity: 0.0384057
inclination: 38.7717°
perigee height: 548 km
apogee height: 1101 km
right ascension of ascending node: 55.7598°
argument of perigee: 233.5947°
revolutions per day: 14.20260194
mean anomaly at epoch: 122.8799°
orbit number at epoch: 91002

The dashed part of the orbit path shows where the satellite is in the earth's shadow,  

DLR